This is the latest recevied weather packets stored in our database for station/object N7WSS. If no packets are shown the sender has not sent any weather packets the latest 10 day(s).
| Time | Temp. | Humidity | Pressure | Rain* | Wind** | Luminosity | Snow |
|---|---|---|---|---|---|---|---|
| 1787942832 | 39.44° C | 23% | 1015 hPa | 0 mm | - | - | - |
| 1787942528 | 40° C | 23% | 1015.1 hPa | 0 mm | - | - | - |
| 1787942222 | 38.89° C | 24% | 1015.1 hPa | 0 mm | - | - | - |
| 1787941917 | 38.89° C | 24% | 1015.2 hPa | 0 mm | - | - | - |
| 1787941617 | 38.89° C | 24% | 1015.4 hPa | 0 mm | - | - | - |
| 1787941316 | 38.33° C | 25% | 1015.2 hPa | 0 mm | - | - | - |
| 1787941016 | 38.33° C | 25% | 1015.5 hPa | 0 mm | - | - | - |
| 1787940715 | 37.78° C | 26% | 1015.5 hPa | 0 mm | - | - | - |
| 1787940413 | 37.22° C | 26% | 1015.9 hPa | 0 mm | - | - | - |
| 1787940108 | 38.33° C | 26% | 1015.9 hPa | 0 mm | - | - | - |
| 1787939803 | 37.78° C | 27% | 1015.9 hPa | 0 mm | - | - | - |
| 1787939502 | 37.78° C | 26% | 1015.7 hPa | 0 mm | - | - | - |
| 1787939197 | 37.22° C | 26% | 1016 hPa | 0 mm | - | - | - |
| 1787938897 | 37.22° C | 27% | 1016 hPa | 0 mm | - | - | - |
| 1787938596 | 37.22° C | 27% | 1015.9 hPa | 0 mm | - | - | - |
| 1787938292 | 37.78° C | 27% | 1016 hPa | 0 mm | - | - | - |
| 1787937987 | 36.67° C | 28% | 1016 hPa | 0 mm | - | - | - |
| 1787937682 | 36.67° C | 27% | 1016.1 hPa | 0 mm | - | - | - |
| 1787937378 | 36.67° C | 28% | 1016 hPa | 0 mm | - | - | - |
| 1787937074 | 36.11° C | 28% | 1016.1 hPa | 0 mm | - | - | - |
| 1787936774 | 35.56° C | 30% | 1016.1 hPa | 0 mm | - | - | - |
| 1787936468 | 35° C | 30% | 1016 hPa | 0 mm | - | - | - |
| 1787936168 | 35° C | 31% | 1015.9 hPa | 0 mm | - | - | - |
| 1787935863 | 34.44° C | 31% | 1016.1 hPa | 0 mm | - | - | - |
| 1787935559 | 34.44° C | 33% | 1016 hPa | 0 mm | - | - | - |
* Rain latest hour (hover to see other rain measurements)
** Current wind speed in m/s (hover to see current wind gust speed)